Regional Weather Roundup
Issued by NWS

Home | Current Version | Previous Version | Text Only | Print | Product List | Glossary Off
Versions: 1 2 3 4 5 6 7 8 9 10 11 12 13 14 15 16 17 18 19 20 21 22 23 24 25 26 27 28 29 30 31 32 33 34 35 36 37 38 39 40 41 42 43 44 45 46 47 48 49 50

000
ASUS45 KSLC 180110
RWRUT

UTAH REGIONAL WEATHER ROUNDUP
NATIONAL WEATHER SERVICE SALT LAKE CITY UT
700 PM MDT FRI APR 17 2015

UTZ001>011-023>025-180200-

NORTHERN UTAH

CITY           SKY/WX    TMP DP  RH WIND       PRES   REMARKS
BRIGHAM CITY   SUNNY     67  30  24 NW5       29.97F
HILL AFB       CLOUDY    59  36  43 SW10      30.01S
LOGAN          SUNNY     64  34  32 W6        29.97F
OGDEN          CLOUDY    60  36  40 SW10      29.99S
PROVO AIRPORT  MOSUNNY   61  34  36 NW10G17   29.99S
SALT LAKE CITY PTSUNNY   61  34  36 W7        30.01S
VERNAL         CLOUDY    47  32  56 NE10G25   30.04R
WENDOVER       MOSUNNY   66  21  18 SE8       30.00S
HEBER CITY     CLOUDY    54  32  43 N14       30.02S
WEST JORDAN    SUNNY     57  37  47 NW7       30.03S

$$

UTZ012>022-026-027-180200-

SOUTHERN/CENTRAL UTAH

CITY           SKY/WX    TMP DP  RH WIND       PRES   REMARKS
BLANDING       CLOUDY    38  34  85 CALM      30.09S
BRYCE CANYON   PTSUNNY   44  29  55 NW15G25   30.07S
CEDAR CITY     MOSUNNY   55  28  35 E14       30.04F
DELTA          MOSUNNY   60  27  27 N10G16    30.00S
HANKSVILLE     CLOUDY    50  37  62 SE10      30.00S
MILFORD        MOSUNNY   59  28  30 N16G22    30.02S
MOAB/CYNLANDS  LGT RAIN  41  39  93 E7        30.01R
PRICE          CLOUDY    47  37  68 NW9       30.01S
ST GEORGE      PTCLDY    70  28  21 CALM      29.97F
KANAB          PTSUNNY   57  28  33 NW7       30.04S

$$

REGIONAL REPORTS     COLORADO/ARIZONA

CITY           SKY/WX    TMP DP  RH WIND       PRES   REMARKS
CRAIG, CO      CLOUDY    44  36  73 W10       29.98R
GRAND JUNCTION LGT RAIN  36  35  96 CALM      30.02S
RIFLE          LGT RAIN  36  33  89 NW3       30.03R
MONTROSE       LGT RAIN  38  34  85 E7        30.03R WCI  33
CORTEZ         CLOUDY    41  27  57 S7        30.03F
PAGE, AZ       PTSUNNY   60  31  33 W3        29.97F
GRAND CANYON   CLOUDY    50  26  39 W9        30.08S
KINGMAN        MOSUNNY   70  20  15 N15       30.01S
FLAGSTAFF      PTSUNNY   45  26  47 VRB7      30.09F

$$

REGIONAL REPORTS    NEVADA/IDAHO/WYOMING

CITY           SKY/WX    TMP DP  RH WIND       PRES   REMARKS
LAS VEGAS, NV  MOSUNNY   79  13   8 CALM      29.88F
ELY            SUNNY     62  12  14 N17G24    30.06S
ELKO           MOSUNNY   67  23  19 NW14      30.05S
POCATELLO, ID  SUNNY     66  20  17 W8        30.01F
BURLEY         SUNNY     63  23  21 W14       30.01F
EVANSTON, WY   LGT RAIN  40  33  76 E15G22    30.11R WCI  32
ROCK SPRINGS   LGT RAIN  37  35  92 NE22G29   30.09F WCI  26
KEMMERER       PTSUNNY   41  34  75 S9        30.12S

$$



USA.gov is the U.S. government's official web portal to all federal, state and local government web resources and services.